Voltar ao catálogo

COSMOS 2251 DEB

AtivoLEO
NORAD 34949·DEBRIS·🇷🇺 Russia

Lançado Jun 16, 1993 de Plesetsk Cosmodrome

Loading…

Próximas Passagens (próximas 24 horas)

TLE

AtualizadoSource: Space-Track

Época: Sep 14, 2026, 10:59 UTC

1 34949U 93036AEC 26257.45766461  .00001358  00000-0  19616-3 0  9994
2 34949  74.0157 290.3918 0077907   3.8727 356.3032 14.75260533924265

Acompanhe COSMOS 2251 DEB em tempo real com AllMySat

Download on the App Store